N133B KSJC-KMMH

Flight info

Callsign N133B
Flight time 0h 48m
Altitude 13500
Route MOD
Aircraft B58T/L-SDFGRY/C

Departure

Time 2026-04-29 04:45
Airport Norman Y. Mineta San Jose International Airport (KSJC)

Arrival

Time 2026-04-29 05:34
Airport Mammoth Yosemite Airport (KMMH)
Time Latitude Longitude Altitude Speed Heading
2026-04-29 04:23 37.35798 -121.92937 48 ft 0 kts 47°
2026-04-29 04:24 37.35782 -121.92919 48 ft 0 kts 49°
2026-04-29 04:39 37.35792 -121.92898 48 ft 6 kts 77°
2026-04-29 04:39 37.35760 -121.92852 48 ft 9 kts 139°
2026-04-29 04:39 37.35700 -121.92786 49 ft 14 kts 138°
2026-04-29 04:39 37.35621 -121.92694 50 ft 17 kts 142°
2026-04-29 04:40 37.35521 -121.92585 51 ft 21 kts 138°
2026-04-29 04:40 37.35442 -121.92451 52 ft 19 kts 84°
2026-04-29 04:40 37.35506 -121.92331 53 ft 14 kts 48°
2026-04-29 04:40 37.35528 -121.92298 53 ft 0 kts 50°
2026-04-29 04:41 37.35543 -121.92275 53 ft 7 kts 49°
2026-04-29 04:42 37.35595 -121.92254 54 ft 12 kts 319°
2026-04-29 04:42 37.35622 -121.92284 53 ft 0 kts 319°
2026-04-29 04:44 37.35643 -121.92306 51 ft 29 kts 320°
2026-04-29 04:45 37.36038 -121.92762 106 ft 103 kts 319°
2026-04-29 04:45 37.36619 -121.93438 313 ft 124 kts 319°
2026-04-29 04:45 37.37267 -121.94182 568 ft 132 kts 319°
2026-04-29 04:45 37.37982 -121.94992 820 ft 144 kts 319°
2026-04-29 04:46 37.38792 -121.95780 1069 ft 150 kts 325°
2026-04-29 04:46 37.39682 -121.96519 1330 ft 156 kts 328°
2026-04-29 04:46 37.40631 -121.97223 1588 ft 160 kts 330°
2026-04-29 04:46 37.41622 -121.97902 1872 ft 164 kts 330°
2026-04-29 04:47 37.42656 -121.98527 2122 ft 166 kts 344°
2026-04-29 04:47 37.43776 -121.98314 2372 ft 166 kts 31°
2026-04-29 04:47 37.44406 -121.97180 2619 ft 159 kts 76°
2026-04-29 04:47 37.44514 -121.95816 2874 ft 156 kts 101°
2026-04-29 04:48 37.43914 -121.94740 3115 ft 153 kts 149°
2026-04-29 04:48 37.42956 -121.94167 3366 ft 152 kts 158°
2026-04-29 04:48 37.41968 -121.93695 3614 ft 152 kts 160°
2026-04-29 04:48 37.40969 -121.93256 3862 ft 152 kts 160°
2026-04-29 04:49 37.39961 -121.92841 4116 ft 153 kts 163°
2026-04-29 04:49 37.38934 -121.92496 4371 ft 153 kts 165°
2026-04-29 04:49 37.37888 -121.92244 4627 ft 153 kts 175°
2026-04-29 04:49 37.36820 -121.92209 4880 ft 153 kts 178°
2026-04-29 04:50 37.35802 -121.91894 5127 ft 152 kts 160°
2026-04-29 04:50 37.34783 -121.91606 5377 ft 153 kts 167°
2026-04-29 04:50 37.33735 -121.91360 5630 ft 153 kts 167°
2026-04-29 04:50 37.32694 -121.91049 5883 ft 154 kts 164°
2026-04-29 04:51 37.31657 -121.90696 6084 ft 158 kts 163°
2026-04-29 04:51 37.30552 -121.90302 6098 ft 171 kts 162°
2026-04-29 04:51 37.29384 -121.89872 6102 ft 178 kts 162°
2026-04-29 04:51 37.28185 -121.89429 6098 ft 181 kts 162°
2026-04-29 04:52 37.26968 -121.88980 6096 ft 183 kts 162°
2026-04-29 04:52 37.25750 -121.88503 6080 ft 184 kts 154°
2026-04-29 04:52 37.24829 -121.87442 6088 ft 181 kts 126°
2026-04-29 04:52 37.24192 -121.86084 6087 ft 181 kts 114°
2026-04-29 04:53 37.23658 -121.84657 6083 ft 181 kts 112°
2026-04-29 04:53 37.23136 -121.83169 6087 ft 190 kts 111°
2026-04-29 04:53 37.22611 -121.81622 6091 ft 195 kts 111°
2026-04-29 04:53 37.22082 -121.80038 6091 ft 198 kts 111°
2026-04-29 04:54 37.21543 -121.78433 6086 ft 201 kts 111°
2026-04-29 04:54 37.20873 -121.76890 6090 ft 202 kts 122°
2026-04-29 04:54 37.19944 -121.75553 6087 ft 204 kts 133°
2026-04-29 04:54 37.18926 -121.74314 6085 ft 204 kts 135°
2026-04-29 04:55 37.17884 -121.73104 6082 ft 204 kts 135°
2026-04-29 04:55 37.16835 -121.71909 6086 ft 204 kts 136°
2026-04-29 04:55 37.15780 -121.70716 6090 ft 204 kts 136°
2026-04-29 04:55 37.14723 -121.69526 6092 ft 204 kts 136°
2026-04-29 04:56 37.13666 -121.68336 6096 ft 204 kts 136°
2026-04-29 04:56 37.12607 -121.67147 6091 ft 204 kts 136°
2026-04-29 04:56 37.11564 -121.65973 6096 ft 204 kts 136°
2026-04-29 04:56 37.10504 -121.64785 6092 ft 204 kts 136°
2026-04-29 04:57 37.09411 -121.63653 6092 ft 205 kts 146°
2026-04-29 04:57 37.08158 -121.62802 6098 ft 205 kts 153°
2026-04-29 04:57 37.06850 -121.62067 6099 ft 206 kts 155°
2026-04-29 04:57 37.05505 -121.61443 6099 ft 207 kts 160°
2026-04-29 04:58 37.04128 -121.60930 6095 ft 206 kts 162°
2026-04-29 04:58 37.02746 -121.60455 6096 ft 206 kts 163°
2026-04-29 04:58 37.01363 -121.59996 6102 ft 205 kts 163°
2026-04-29 04:58 37.00005 -121.59489 6097 ft 202 kts 151°
2026-04-29 04:59 36.98891 -121.58447 6108 ft 199 kts 136°
2026-04-29 04:59 36.97891 -121.57247 6112 ft 199 kts 131°
2026-04-29 04:59 36.96955 -121.55973 6114 ft 199 kts 129°
2026-04-29 04:59 36.96043 -121.54672 6114 ft 199 kts 128°
2026-04-29 05:00 36.95141 -121.53363 6111 ft 198 kts 128°
2026-04-29 05:00 36.94522 -121.51872 6116 ft 194 kts 96°
2026-04-29 05:00 36.94476 -121.50199 6130 ft 193 kts 86°
2026-04-29 05:00 36.94547 -121.48526 6128 ft 193 kts 84°
2026-04-29 05:01 36.94653 -121.46853 6133 ft 194 kts 83°
2026-04-29 05:01 36.94772 -121.45197 6130 ft 194 kts 82°
2026-04-29 05:01 36.95095 -121.43575 6128 ft 192 kts 69°
2026-04-29 05:01 36.95790 -121.41349 6127 ft 192 kts 66°
2026-04-29 05:02 36.96888 -121.38306 6127 ft 192 kts 63°
2026-04-29 05:02 36.98101 -121.35349 6120 ft 191 kts 60°
2026-04-29 05:02 36.99404 -121.32471 6126 ft 190 kts 59°
2026-04-29 05:02 37.00721 -121.29580 6118 ft 192 kts 59°
2026-04-29 05:03 37.02046 -121.26666 6116 ft 194 kts 59°
2026-04-29 05:03 37.03372 -121.23739 6103 ft 193 kts 59°
2026-04-29 05:03 37.04194 -121.20559 6094 ft 195 kts 79°
2026-04-29 05:03 37.04541 -121.17191 6084 ft 195 kts 81°
2026-04-29 05:04 37.04724 -121.13814 6078 ft 197 kts 98°
2026-04-29 05:04 37.03926 -121.10517 6075 ft 197 kts 98°
2026-04-29 05:04 37.03659 -121.07107 6065 ft 197 kts 90°
2026-04-29 05:04 37.03537 -121.03668 6059 ft 198 kts 90°
2026-04-29 05:05 37.03436 -121.00212 6046 ft 198 kts 89°
2026-04-29 05:05 37.03329 -120.96767 6053 ft 199 kts 89°
2026-04-29 05:05 37.03210 -120.93312 6043 ft 199 kts 89°
2026-04-29 05:05 37.03143 -120.91406 6043 ft 199 kts 89°
2026-04-29 05:06 37.03083 -120.89680 6045 ft 198 kts 89°
2026-04-29 05:06 37.03023 -120.87956 6046 ft 198 kts 89°
2026-04-29 05:06 37.02963 -120.86230 6046 ft 198 kts 89°
2026-04-29 05:06 37.02904 -120.84507 6046 ft 198 kts 89°
2026-04-29 05:07 37.02846 -120.82785 6043 ft 198 kts 89°
2026-04-29 05:07 37.02803 -120.81063 6043 ft 198 kts 88°
2026-04-29 05:07 37.02804 -120.79342 6043 ft 197 kts 86°
2026-04-29 05:07 37.02860 -120.76119 6044 ft 197 kts 85°
2026-04-29 05:08 37.02934 -120.72645 6037 ft 197 kts 86°
2026-04-29 05:08 37.02953 -120.69261 6047 ft 197 kts 87°
2026-04-29 05:08 37.02852 -120.65824 6047 ft 198 kts 90°
2026-04-29 05:08 37.02741 -120.62393 6038 ft 197 kts 89°
2026-04-29 05:09 37.02820 -120.58967 6041 ft 196 kts 82°
2026-04-29 05:09 37.03350 -120.55633 6039 ft 194 kts 70°
2026-04-29 05:09 37.04228 -120.52428 6041 ft 194 kts 68°
2026-04-29 05:09 37.05157 -120.49251 6040 ft 194 kts 67°
2026-04-29 05:10 37.05841 -120.45984 6042 ft 196 kts 82°
2026-04-29 05:10 37.05920 -120.42572 6044 ft 196 kts 86°
2026-04-29 05:10 37.05930 -120.39143 6049 ft 196 kts 88°
2026-04-29 05:10 37.05978 -120.35744 6052 ft 195 kts 87°
2026-04-29 05:11 37.06022 -120.33231 6053 ft 195 kts 87°
2026-04-29 05:11 37.06053 -120.31535 6054 ft 195 kts 87°
2026-04-29 05:11 37.06083 -120.29841 6055 ft 195 kts 87°
2026-04-29 05:11 37.06115 -120.28147 6056 ft 194 kts 87°
2026-04-29 05:12 37.06147 -120.26480 6057 ft 194 kts 87°
2026-04-29 05:12 37.06180 -120.24793 6057 ft 194 kts 87°
2026-04-29 05:12 37.05468 -120.22013 6060 ft 196 kts 124°
2026-04-29 05:12 37.03679 -120.19402 6067 ft 200 kts 130°
2026-04-29 05:13 37.01747 -120.16863 6063 ft 202 kts 131°
2026-04-29 05:13 37.00052 -120.14669 6064 ft 203 kts 131°
2026-04-29 05:13 36.98588 -120.12785 6065 ft 204 kts 131°
2026-04-29 05:13 36.96785 -120.10201 6360 ft 185 kts 111°
2026-04-29 05:14 36.96237 -120.07237 6845 ft 169 kts 91°
2026-04-29 05:14 36.96404 -120.05330 7163 ft 165 kts 75°
2026-04-29 05:14 36.97118 -120.02647 7659 ft 161 kts 70°
2026-04-29 05:14 36.98268 -119.99022 8335 ft 160 kts 65°
2026-04-29 05:15 36.98931 -119.97376 8679 ft 160 kts 63°
2026-04-29 05:15 37.00480 -119.95398 9194 ft 161 kts 41°
2026-04-29 05:15 37.01006 -119.92813 9719 ft 161 kts 93°
2026-04-29 05:15 37.00812 -119.89992 10223 ft 164 kts 95°
2026-04-29 05:16 37.00546 -119.87132 10699 ft 166 kts 96°
2026-04-29 05:16 37.00235 -119.84245 11188 ft 168 kts 96°
2026-04-29 05:16 36.99917 -119.81331 11685 ft 170 kts 96°
2026-04-29 05:16 36.99611 -119.78393 12190 ft 171 kts 96°
2026-04-29 05:17 36.99294 -119.75441 12707 ft 172 kts 96°
2026-04-29 05:17 36.99047 -119.72455 13213 ft 174 kts 91°
2026-04-29 05:17 36.99294 -119.69322 13402 ft 190 kts 78°
2026-04-29 05:17 36.99880 -119.65939 13435 ft 206 kts 75°
2026-04-29 05:18 37.00598 -119.62400 13436 ft 214 kts 74°
2026-04-29 05:18 37.01366 -119.58750 13435 ft 219 kts 71°
2026-04-29 05:18 37.02680 -119.55311 13433 ft 220 kts 63°
2026-04-29 05:18 37.04014 -119.51910 13432 ft 220 kts 63°
2026-04-29 05:19 37.05371 -119.48468 13423 ft 220 kts 63°
2026-04-29 05:19 37.06826 -119.45106 13419 ft 219 kts 59°
2026-04-29 05:19 37.10057 -119.39230 13430 ft 219 kts 46°
2026-04-29 05:19 37.14742 -119.34353 13432 ft 218 kts 35°
2026-04-29 05:20 37.20177 -119.30917 13445 ft 220 kts 20°
2026-04-29 05:20 37.25965 -119.28405 13460 ft 220 kts 20°
2026-04-29 05:20 37.31884 -119.26408 13453 ft 221 kts 16°
2026-04-29 05:20 37.37710 -119.23995 13460 ft 220 kts 20°
2026-04-29 05:21 37.43590 -119.21775 13466 ft 221 kts 10°
2026-04-29 05:21 37.46908 -119.21176 13464 ft 222 kts
2026-04-29 05:21 37.48421 -119.20822 13465 ft 221 kts 22°
2026-04-29 05:21 37.49723 -119.19816 13467 ft 220 kts 40°
2026-04-29 05:22 37.50860 -119.18526 13464 ft 220 kts 44°
2026-04-29 05:22 37.51961 -119.17185 13475 ft 219 kts 45°
2026-04-29 05:22 37.53036 -119.15828 13491 ft 219 kts 48°
2026-04-29 05:22 37.53745 -119.14146 13497 ft 219 kts 70°
2026-04-29 05:23 37.54210 -119.12312 13495 ft 220 kts 73°
2026-04-29 05:23 37.54622 -119.10454 13494 ft 220 kts 74°
2026-04-29 05:23 37.55010 -119.08610 13492 ft 220 kts 73°
2026-04-29 05:23 37.55784 -119.06987 13485 ft 219 kts 41°
2026-04-29 05:24 37.57161 -119.06239 13587 ft 220 kts
2026-04-29 05:24 37.58681 -119.06455 13495 ft 221 kts 352°
2026-04-29 05:24 37.60201 -119.06732 13490 ft 221 kts 353°
2026-04-29 05:24 37.61722 -119.06990 13483 ft 221 kts 354°
2026-04-29 05:25 37.63243 -119.07055 13487 ft 219 kts 13°
2026-04-29 05:25 37.64534 -119.06119 13585 ft 217 kts 48°
2026-04-29 05:25 37.65175 -119.04410 13606 ft 218 kts 75°
2026-04-29 05:25 37.65429 -119.02516 13613 ft 221 kts 88°
2026-04-29 05:26 37.65292 -119.00581 13610 ft 222 kts 95°
2026-04-29 05:26 37.65067 -118.98651 13547 ft 225 kts 97°
2026-04-29 05:26 37.64813 -118.96639 13194 ft 238 kts 98°
2026-04-29 05:26 37.64547 -118.94533 12826 ft 247 kts 98°
2026-04-29 05:27 37.64264 -118.92370 12471 ft 253 kts 100°
2026-04-29 05:27 37.62735 -118.88386 11748 ft 243 kts 108°
2026-04-29 05:27 37.62228 -118.86433 11399 ft 227 kts 106°
2026-04-29 05:28 37.61774 -118.84608 11058 ft 216 kts 106°
2026-04-29 05:28 37.61314 -118.82840 10714 ft 209 kts 108°
2026-04-29 05:28 37.60847 -118.81131 10383 ft 204 kts 108°
2026-04-29 05:28 37.60376 -118.79451 10029 ft 202 kts 108°
2026-04-29 05:29 37.59915 -118.77839 10036 ft 190 kts 108°
2026-04-29 05:29 37.59462 -118.76280 10064 ft 189 kts 108°
2026-04-29 05:29 37.59009 -118.74720 10087 ft 190 kts 108°
2026-04-29 05:29 37.58553 -118.73155 10091 ft 190 kts 108°
2026-04-29 05:30 37.58101 -118.71582 10087 ft 191 kts 107°
2026-04-29 05:30 37.57963 -118.69956 10078 ft 187 kts 73°
2026-04-29 05:30 37.58669 -118.68645 10071 ft 183 kts 33°
2026-04-29 05:30 37.59886 -118.68278 9936 ft 185 kts 352°
2026-04-29 05:31 37.60986 -118.69045 9827 ft 186 kts 311°
2026-04-29 05:31 37.61405 -118.70579 9653 ft 194 kts 274°
2026-04-29 05:31 37.61334 -118.72273 9359 ft 193 kts 266°
2026-04-29 05:31 37.61198 -118.73894 9025 ft 178 kts 265°
2026-04-29 05:32 37.61047 -118.75395 8688 ft 168 kts 264°
2026-04-29 05:32 37.60913 -118.76830 8373 ft 162 kts 264°
2026-04-29 05:32 37.60943 -118.78197 8140 ft 152 kts 281°
2026-04-29 05:32 37.61190 -118.79477 7843 ft 149 kts 289°
2026-04-29 05:33 37.61537 -118.80679 7528 ft 142 kts 290°
2026-04-29 05:33 37.61840 -118.81777 7236 ft 116 kts 288°
2026-04-29 05:33 37.62075 -118.82660 7081 ft 100 kts 288°
2026-04-29 05:33 37.62273 -118.83404 7084 ft 74 kts 289°
2026-04-29 05:34 37.62410 -118.83901 7096 ft 50 kts 289°
2026-04-29 05:34 37.62485 -118.84170 7105 ft 17 kts 289°
2026-04-29 05:34 37.62542 -118.84222 7106 ft 13 kts 18°
2026-04-29 05:34 37.62622 -118.84207 7109 ft 7 kts 288°
2026-04-29 05:35 37.62642 -118.84251 7111 ft 5 kts 22°
2026-04-29 05:35 37.62657 -118.84238 7111 ft 0 kts 20°
2026-04-29 05:40 37.62686 -118.84227 7112 ft 0 kts
2026-04-29 05:41 37.62677 -118.84227 7112 ft 5 kts
2026-04-29 05:41 37.62641 -118.84228 7111 ft 0 kts 354°
2026-04-29 05:42 37.62643 -118.84227 7115 ft 4 kts
2026-04-29 05:42 37.62665 -118.84181 7110 ft 5 kts 16°
2026-04-29 05:42 37.62667 -118.84181 7110 ft 0 kts
2026-04-29 05:43 37.62665 -118.84181 7111 ft 1 kts 349°
2026-04-29 05:43 37.62664 -118.84181 7110 ft 0 kts 330°
2026-04-29 05:43 37.62664 -118.84180 7110 ft 0 kts 317°
2026-04-29 05:44 37.62668 -118.84229 7112 ft 3 kts 14°
2026-04-29 05:44 37.62776 -118.84171 7139 ft 31 kts
2026-04-29 05:44 37.63011 -118.84015 7119 ft 48 kts
2026-04-29 05:44 37.63318 -118.83976 7113 ft 49 kts 357°
2026-04-29 05:45 37.63635 -118.84048 7108 ft 37 kts 350°
2026-04-29 05:45 37.63837 -118.84105 7113 ft 36 kts 354°
2026-04-29 05:45 37.64010 -118.84154 7083 ft 17 kts 352°
2026-04-29 05:45 37.64243 -118.84233 7099 ft 61 kts 335°
2026-04-29 05:46 37.64743 -118.84571 7181 ft 88 kts 325°
2026-04-29 05:46 37.65268 -118.84414 7144 ft 107 kts 79°
2026-04-29 05:46 37.65287 -118.84312 7115 ft 9 kts 300°